FW6835 Weather Reports


time (UTC)temp
F
wind
direction
speed
knots
gust
knots
rain 1hr
in
rain 24hr
in
rain mn
in
humidity
%
barometer
mb
20260906181051 51 96 0.9 1.7 0.00 0.00 0.00 84 1028.0
20260906180550 52 97 0.9 1.7 0.00 0.00 0.00 83 1028.0
20260906180053 52 100 0.9 1.7 0.00 0.00 0.00 83 1028.1
20260906175549 52 103 0.0 1.7 0.00 0.00 0.00 83 1027.9
20260906175048 53 103 0.9 1.7 0.00 0.00 0.00 82 1027.9
20260906174551 53 105 0.0 1.7 0.00 0.00 0.00 81 1028.0
20260906174048 53 111 0.0 1.7 0.00 0.00 0.00 81 1028.0
20260906173548 54 111 0.0 1.7 0.00 0.00 0.00 81 1027.9
20260906173058 54 111 0.0 0.0 0.00 0.00 0.00 80 1027.9
20260906172548 55 111 0.0 0.0 0.00 0.00 0.00 80 1027.8
20260906172048 55 111 0.0 0.0 0.00 0.00 0.00 79 1027.8
20260906171552 55 111 0.0 0.0 0.00 0.00 0.00 78 1027.8
20260906171048 56 111 0.0 0.0 0.00 0.00 0.00 78 1027.9
20260906170548 57 111 0.0 0.9 0.00 0.00 0.00 77 1027.8
20260906170048 57 111 0.0 0.9 0.00 0.00 0.00 75 1027.9
20260906165547 58 111 0.0 0.0 0.00 0.00 0.00 73 1027.9
20260906165047 59 111 0.0 0.0 0.00 0.00 0.00 72 1027.9
20260906164548 60 111 0.0 0.0 0.00 0.00 0.00 71 1027.9
20260906164047 60 112 0.0 0.0 0.00 0.00 0.00 72 1027.8
20260906163547 61 112 0.0 0.0 0.00 0.00 0.00 69 1027.8
20260906163047 62 112 0.0 3.5 0.00 0.00 0.00 69 1027.9
20260906162546 62 113 0.0 3.5 0.00 0.00 0.00 70 1027.8
20260906162046 62 188 0.0 0.9 0.00 0.00 0.00 67 1027.8
20260906161546 62 227 0.0 0.0 0.00 0.00 0.00 68 1027.7
20260906161046 62 227 0.0 3.5 0.00 0.00 0.00 66 1027.9
20260906160546 62 249 0.9 3.5 0.00 0.00 0.00 66 1027.9
20260906160046 63 236 0.0 0.9 0.00 0.00 0.00 67 1027.9
20260906155545 63 257 0.0 4.3 0.00 0.00 0.00 68 1027.8
20260906155049 62 227 0.9 4.3 0.00 0.00 0.00 65 1027.9
20260906154554 63 199 0.9 2.6 0.00 0.00 0.00 64 1027.9
20260906154050 62 213 0.9 4.3 0.00 0.00 0.00 65 1027.9
20260906153544 62 214 0.9 5.2 0.00 0.00 0.00 64 1028.1
20260906153045 63 200 0.0 6.1 0.00 0.00 0.00 67 1028.1
20260906152543 63 188 1.7 6.1 0.00 0.00 0.00 63 1028.2
20260906152044 63 254 0.9 6.1 0.00 0.00 0.00 66 1028.0
20260906151544 64 239 1.7 6.1 0.00 0.00 0.00 63 1028.0
20260906151043 63 194 0.9 4.3 0.00 0.00 0.00 65 1028.0
20260906150546 63 233 0.9 7.0 0.00 0.00 0.00 65 1027.9
20260906150042 63 240 2.6 7.0 0.00 0.00 0.00 64 1027.9
20260906145541 62 264 2.6 7.0 0.00 0.00 0.00 64 1028.1
20260906145045 62 190 1.7 5.2 0.00 0.00 0.00 63 1028.2
20260906144542 63 246 1.7 7.0 0.00 0.00 0.00 64 1028.0
20260906144040 63 244 0.9 7.0 0.00 0.00 0.00 66 1028.0
20260906143541 63 234 1.7 7.0 0.00 0.00 0.00 64 1028.1
20260906143052 63 223 1.7 6.1 0.00 0.00 0.00 64 1027.9
20260906142540 62 185 2.6 6.1 0.00 0.00 0.00 64 1028.0
20260906142041 62 300 0.9 6.1 0.00 0.00 0.00 65 1027.9
20260906141539 62 286 3.5 6.1 0.00 0.00 0.00 64 1028.0
20260906141039 62 219 1.7 7.8 0.00 0.00 0.00 64 1028.1
20260906140539 62 247 2.6 7.8 0.00 0.00 0.00 64 1028.0
20260906140044 62 202 0.9 10.4 0.00 0.00 0.00 67 1028.1
20260906135541 63 289 3.5 10.4 0.00 0.00 0.00 65 1028.1
20260906135038 62 283 0.0 7.8 0.00 0.00 0.00 67 1028.0
20260906134544 62 300 3.5 9.6 0.00 0.00 0.00 65 1028.0
20260906134038 62 301 2.6 9.6 0.00 0.00 0.00 66 1028.3
20260906133538 62 194 4.3 7.8 0.00 0.00 0.00 64 1028.3
20260906133037 62 271 2.6 7.8 0.00 0.00 0.00 64 1028.3
20260906132537 62 251 3.5 7.0 0.00 0.00 0.00 64 1028.2
20260906132039 62 288 2.6 7.0 0.00 0.00 0.00 64 1028.0
20260906131638 62 224 1.7 8.7 0.00 0.00 0.00 67 1028.2
20260906131036 62 265 4.3 8.7 0.00 0.00 0.00 64 1028.1
20260906130536 62 259 2.6 7.8 0.00 0.00 0.00 67 1027.9
20260906130042 62 172 2.6 10.4 0.00 0.00 0.00 66 1028.1
20260906125535 62 161 3.5 11.3 0.00 0.00 0.00 67 1028.1
20260906125034 61 211 0.9 6.1 0.00 0.00 0.00 69 1028.1
20260906124533 61 165 2.6 7.8 0.00 0.00 0.00 65 1028.2
20260906124032 61 265 1.7 6.1 0.00 0.00 0.00 68 1028.1
20260906123531 60 301 3.5 8.7 0.00 0.00 0.00 66 1028.2
20260906123035 60 230 3.5 9.6 0.00 0.00 0.00 66 1028.2
20260906122533 61 306 2.6 7.0 0.00 0.00 0.00 68 1028.3
20260906122131 60 238 1.7 7.8 0.00 0.00 0.00 69 1028.3
20260906121531 60 185 2.6 8.7 0.00 0.00 0.00 67 1028.3
20260906121030 60 240 2.6 8.7 0.00 0.00 0.00 68 1028.3
20260906120530 60 227 2.6 8.7 0.00 0.00 0.00 68 1028.4
20260906120030 60 181 2.6 9.6 0.00 0.00 0.00 71 1028.3
20260906115530 59 24 3.5 9.6 0.00 0.00 0.00 70 1028.3
20260906115130 60 207 3.5 9.6 0.00 0.00 0.00 71 1028.3
20260906114534 60 229 4.3 9.6 0.00 0.00 0.00 68 1028.3
20260906114031 60 275 0.9 6.1 0.00 0.00 0.00 69 1028.2
20260906113527 59 261 2.6 7.0 0.00 0.00 0.00 72 1028.2
20260906113039 59 238 2.6 7.0 0.00 0.00 0.00 69 1028.3
20260906112526 59 181 1.7 4.3 0.00 0.00 0.00 71 1028.3
20260906112027 59 277 1.7 6.1 0.00 0.00 0.00 72 1028.4
20260906111533 58 251 1.7 7.0 0.00 0.00 0.00 73 1028.3
20260906111026 59 176 1.7 7.0 0.00 0.00 0.00 70 1028.4
20260906110530 59 208 2.6 7.0 0.00 0.00 0.00 70 1028.4
20260906110025 59 205 1.7 7.8 0.00 0.00 0.00 71 1028.4
20260906105525 58 213 2.6 9.6 0.00 0.00 0.00 70 1028.4
20260906105024 58 229 3.5 9.6 0.00 0.00 0.00 71 1028.3
20260906104523 58 299 2.6 7.8 0.00 0.00 0.00 73 1028.4
20260906104023 58 222 2.6 7.8 0.00 0.00 0.00 75 1028.4
20260906103521 59 228 2.6 7.8 0.00 0.00 0.00 76 1028.5
20260906103020 58 253 2.6 7.8 0.00 0.00 0.00 80 1028.5
20260906102520 56 246 1.7 6.1 0.00 0.00 0.00 79 1028.5
20260906102019 56 254 2.6 7.0 0.00 0.00 0.00 77 1028.6
20260906101519 56 244 2.6 7.0 0.00 0.00 0.00 75 1028.5
20260906101018 57 232 0.9 3.5 0.00 0.00 0.00 74 1028.4
20260906100517 57 225 1.7 7.8 0.00 0.00 0.00 76 1028.4
20260906100016 57 262 2.6 7.8 0.00 0.00 0.00 77 1028.2
20260906095515 57 186 2.6 7.8 0.00 0.00 0.00 81 1028.2
20260906095015 56 160 0.0 4.3 0.00 0.00 0.00 84 1028.2
20260906094524 55 232 0.9 4.3 0.00 0.00 0.00 79 1028.2
20260906094012 56 259 1.7 5.2 0.00 0.00 0.00 78 1028.3
20260906093512 56 267 0.9 6.1 0.00 0.00 0.00 81 1028.3
20260906093012 55 183 0.9 5.2 0.00 0.00 0.00 83 1028.2
20260906092513 55 263 1.7 7.8 0.00 0.00 0.00 79 1028.3
20260906092011 55 183 1.7 7.8 0.00 0.00 0.00 79 1028.3
20260906091523 55 259 1.7 5.2 0.00 0.00 0.00 79 1028.4
20260906091009 55 246 0.9 7.0 0.00 0.00 0.00 80 1028.2
20260906090511 55 238 3.5 7.8 0.00 0.00 0.00 81 1028.3
20260906090009 55 223 1.7 4.3 0.00 0.00 0.00 84 1028.2
20260906085509 55 248 0.0 5.2 0.00 0.00 0.00 83 1028.2
20260906085012 55 280 0.9 5.2 0.00 0.00 0.00 82 1028.3
20260906084608 55 224 1.7 5.2 0.00 0.00 0.00 82 1028.1
20260906084006 55 236 1.7 5.2 0.00 0.00 0.00 83 1028.1
20260906083509 54 177 0.9 5.2 0.00 0.00 0.00 84 1028.1
20260906083009 54 213 0.9 3.5 0.00 0.00 0.00 84 1028.0
20260906082505 54 221 0.9 7.8 0.00 0.00 0.00 84 1027.9
20260906082006 54 244 2.6 10.4 0.00 0.00 0.00 83 1028.0
20260906081513 54 241 2.6 5.2 0.00 0.00 0.00 83 1027.8
20260906081005 54 169 1.7 9.6 0.00 0.00 0.00 84 1027.8
20260906080503 54 309 2.6 9.6 0.00 0.00 0.00 86 1027.7
20260906080002 53 245 2.6 5.2 0.00 0.00 0.00 85 1027.6
20260906075600 54 235 1.7 7.0 0.00 0.00 0.00 85 1027.6
20260906075100 53 177 2.6 7.0 0.00 0.00 0.00 86 1027.5
20260906074600 53 226 2.6 7.8 0.00 0.00 0.00 87 1027.5
20260906074058 53 227 2.6 7.8 0.00 0.00 0.00 86 1027.6
20260906073558 52 116 0.9 7.0 0.00 0.00 0.00 88 1027.5
20260906073057 52 250 1.7 7.0 0.00 0.00 0.00 89 1027.4
20260906072558 52 175 1.7 6.1 0.00 0.00 0.00 89 1027.3
20260906072056 52 235 1.7 6.1 0.00 0.00 0.00 89 1027.1
20260906071606 52 207 1.7 6.1 0.00 0.00 0.00 89 1027.0
20260906071157 52 207 0.9 5.2 0.00 0.00 0.00 89 1026.9
20260906070556 52 112 1.7 5.2 0.00 0.00 0.00 89 1026.9
20260906070054 52 215 1.7 6.1 0.00 0.00 0.00 89 1026.8
20260906065554 52 213 1.7 7.8 0.00 0.00 0.00 89 1026.8
20260906065054 52 170 0.9 7.8 0.00 0.00 0.00 89 1026.7
20260906064555 52 253 2.6 7.8 0.00 0.00 0.00 89 1026.7
20260906064051 52 297 3.5 7.8 0.00 0.00 0.00 89 1026.8
20260906063551 52 281 1.7 4.3 0.00 0.00 0.00 90 1026.6
20260906063051 51 215 0.9 7.8 0.00 0.00 0.00 90 1026.7
20260906062550 51 229 2.6 7.8 0.00 0.00 0.00 90 1026.6
20260906062052 51 186 0.9 7.8 0.00 0.00 0.00 90 1026.7
20260906061549 51 158 0.9 9.6 0.00 0.00 0.00 91 1026.5
20260906061047 51 191 1.7 5.2 0.00 0.00 0.00 91 1026.4
20260906060547 51 229 1.7 5.2 0.00 0.00 0.00 90 1026.3
20260906060046 51 283 1.7 6.1 0.00 0.00 0.00 90 1026.3
20260906055546 51 246 1.7 3.5 0.00 0.00 0.00 91 1026.3
20260906055045 51 244 0.9 5.2 0.00 0.00 0.00 91 1026.2
20260906054549 51 195 0.9 5.2 0.00 0.00 0.00 91 1026.1
20260906054045 51 234 0.9 4.3 0.00 0.00 0.00 91 1026.0
20260906053543 51 234 0.9 3.5 0.00 0.00 0.00 91 1026.1
20260906053042 51 186 0.9 3.5 0.00 0.00 0.00 91 1026.1
20260906052541 51 240 0.0 5.2 0.00 0.00 0.00 91 1026.0
20260906052041 51 125 1.7 5.2 0.00 0.00 0.00 91 1025.9
20260906051548 51 225 0.9 7.0 0.00 0.00 0.00 91 1026.0
20260906051042 51 187 1.7 7.0 0.00 0.00 0.00 91 1025.8
20260906050542 51 191 0.9 6.1 0.00 0.00 0.00 90 1025.9
20260906050058 51 240 1.7 5.2 0.00 0.00 0.00 90 1026.0
20260906045537 51 190 1.7 6.1 0.00 0.00 0.00 90 1025.9
20260906045037 51 194 0.9 7.0 0.00 0.00 0.00 90 1025.9
20260906044536 51 248 1.7 6.1 0.00 0.00 0.00 90 1025.9
20260906044036 51 193 0.9 7.0 0.00 0.00 0.00 90 1025.9
20260906043535 51 317 0.9 7.0 0.00 0.00 0.00 90 1025.8
20260906043034 51 197 0.9 5.2 0.00 0.00 0.00 90 1025.7
20260906042533 51 185 0.9 7.8 0.00 0.00 0.00 89 1025.6
20260906042033 51 226 0.9 7.8 0.00 0.00 0.00 89 1025.7
20260906041533 51 263 0.9 6.1 0.00 0.00 0.00 89 1025.7
20260906041032 51 185 1.7 6.1 0.00 0.00 0.00 89 1025.7
20260906040531 51 209 0.9 8.7 0.00 0.00 0.00 89 1025.6
20260906040035 51 240 2.6 8.7 0.00 0.00 0.00 89 1025.6
20260906035529 52 274 1.7 6.1 0.00 0.00 0.00 89 1025.4
20260906035029 52 175 1.7 7.0 0.00 0.00 0.00 89 1025.3
20260906034538 52 250 0.0 0.0 0.00 0.00 0.00 88 1025.3
20260906034027 52 201 0.0 0.0 0.00 0.00 0.00 88 1025.2
20260906033527 52 152 0.0 0.0 0.00 0.00 0.00 88 1025.3
20260906033029 52 229 0.0 1.7 0.00 0.00 0.00 88 1025.4
20260906032526 52 232 0.0 7.0 0.00 0.00 0.00 88 1025.2
20260906032026 52 244 0.9 7.0 0.00 0.00 0.00 88 1025.1
20260906031527 52 265 1.7 6.1 0.00 0.00 0.00 88 1025.2
20260906031025 52 245 0.9 6.1 0.00 0.00 0.00 88 1025.2
20260906030528 52 286 0.9 4.3 0.00 0.00 0.00 88 1025.1
20260906030023 52 234 1.7 4.3 0.00 0.00 0.00 87 1025.2
20260906025523 52 194 1.7 5.2 0.00 0.00 0.00 87 1025.2
20260906025023 52 196 1.7 5.2 0.00 0.00 0.00 87 1025.1
20260906024522 52 284 0.9 7.8 0.00 0.00 0.00 87 1025.0
20260906024021 52 227 3.5 7.8 0.00 0.00 0.00 87 1025.1
20260906023521 52 189 2.6 7.0 0.00 0.00 0.00 87 1025.0
20260906023025 53 185 2.6 7.8 0.00 0.00 0.00 87 1025.1
20260906022520 53 224 3.5 8.7 0.00 0.00 0.00 87 1025.1
20260906022020 53 231 1.7 8.7 0.00 0.00 0.00 87 1024.9
20260906021519 53 245 2.6 7.8 0.00 0.00 0.00 87 1024.8
20260906021018 53 209 0.9 7.8 0.00 0.00 0.00 87 1024.9
20260906020521 53 263 1.7 8.7 0.00 0.00 0.00 87 1024.9
20260906020018 53 190 0.9 3.5 0.00 0.00 0.00 87 1024.9
20260906015517 53 187 0.9 6.1 0.00 0.00 0.00 87 1024.7
20260906015018 53 199 0.9 6.1 0.00 0.00 0.00 87 1024.8
20260906014517 53 248 1.7 6.1 0.00 0.00 0.00 87 1024.8
20260906014015 53 231 1.7 8.7 0.00 0.00 0.00 86 1024.7
20260906013515 53 214 0.9 7.0 0.00 0.00 0.00 86 1024.6
20260906013015 53 200 0.9 7.0 0.00 0.00 0.00 86 1024.7
20260906012514 53 157 0.9 5.2 0.00 0.00 0.00 86 1024.6
20260906012014 53 236 1.7 6.1 0.00 0.00 0.00 87 1024.6
20260906011513 53 224 1.7 7.0 0.00 0.00 0.00 86 1024.6
20260906011012 53 238 1.7 5.2 0.00 0.00 0.00 86 1024.6
20260906010516 53 196 0.9 4.3 0.00 0.00 0.00 87 1024.6
20260906010014 53 209 0.9 4.3 0.00 0.00 0.00 86 1024.5
20260906005515 54 172 0.9 5.2 0.00 0.01 0.00 86 1024.5
20260906005011 54 191 0.0 7.0 0.00 0.01 0.00 87 1024.6
20260906004512 54 231 0.9 7.8 0.00 0.01 0.00 86 1024.6
20260906004010 54 181 3.5 8.7 0.00 0.01 0.00 86 1024.6
20260906003511 54 224 0.9 8.7 0.00 0.01 0.00 87 1024.6
20260906003009 54 246 2.6 8.7 0.00 0.01 0.00 87 1024.5
20260906002508 54 262 2.6 7.0 0.00 0.01 0.00 87 1024.4
20260906002008 54 242 2.6 7.8 0.00 0.01 0.00 87 1024.5
20260906001508 54 171 0.9 7.8 0.00 0.01 0.00 87 1024.3
20260906001007 54 303 2.6 6.1 0.00 0.01 0.00 87 1024.5
20260906000507 54 217 0.9 5.2 0.00 0.01 0.00 87 1024.5
20260906000007 54 191 1.7 5.2 0.00 0.01 0.00 87 1024.5
20260905235506 54 227 1.7 6.1 0.00 0.01 0.00 87 1024.5
20260905235006 54 256 1.7 7.0 0.00 0.01 0.00 87 1024.3
20260905234506 54 189 1.7 6.1 0.00 0.01 0.00 87 1024.3
20260905234007 54 175 0.0 6.1 0.00 0.01 0.00 87 1024.3
20260905233508 54 277 1.7 6.1 0.00 0.01 0.00 87 1024.3
20260905233003 54 216 1.7 6.1 0.00 0.01 0.00 88 1024.1
20260905232505 54 183 0.9 6.1 0.00 0.01 0.00 88 1024.3
20260905232003 54 202 0.9 3.5 0.00 0.01 0.00 88 1024.0
20260905231502 54 216 1.7 4.3 0.00 0.01 0.00 88 1024.1
20260905231004 55 178 0.9 4.3 0.00 0.01 0.00 88 1024.1
20260905230501 55 184 0.9 2.6 0.00 0.01 0.00 88 1023.9
20260905230100 55 206 0.0 3.5 0.00 0.01 0.00 88 1023.9
20260905225604 55 178 1.7 6.1 0.00 0.03 0.00 88 1024.0
20260905225102 55 215 0.9 6.1 0.00 0.03 0.00 88 1023.9
20260905224602 55 211 0.0 5.2 0.00 0.03 0.00 88 1023.8
20260905224056 55 224 0.9 5.2 0.00 0.03 0.00 88 1023.8
20260905223557 55 238 0.0 2.6 0.00 0.03 0.00 88 1023.7
20260905223056 55 183 0.0 7.8 0.00 0.03 0.00 88 1023.7
20260905222555 55 227 1.7 7.8 0.00 0.03 0.00 87 1023.6
20260905222055 55 254 0.9 3.5 0.00 0.03 0.00 87 1023.5
20260905221555 55 244 0.0 4.3 0.00 0.03 0.00 87 1023.6
20260905221055 55 248 0.9 4.3 0.00 0.03 0.00 86 1023.7
20260905220554 55 253 0.9 3.5 0.00 0.03 0.00 86 1023.5
20260905220053 55 210 0.0 3.5 0.00 0.03 0.00 86 1023.7
20260905215553 55 215 0.0 3.5 0.00 0.17 0.03 86 1023.6
20260905215052 55 227 0.0 6.1 0.00 0.17 0.03 85 1023.7
20260905214604 56 259 1.7 6.1 0.00 0.17 0.03 85 1023.6
20260905214051 56 242 0.9 6.1 0.00 0.17 0.03 85 1023.5
20260905213551 56 279 0.9 6.1 0.00 0.17 0.03 84 1023.3
20260905213050 56 201 0.9 4.3 0.00 0.17 0.03 84 1023.3
20260905212550 56 195 0.0 3.5 0.00 0.17 0.03 84 1023.3
20260905212050 56 209 0.0 3.5 0.00 0.17 0.03 85 1023.2
20260905211549 56 135 0.9 3.5 0.00 0.17 0.03 84 1023.2
20260905211049 56 224 1.7 4.3 0.00 0.17 0.03 84 1023.2
20260905210549 56 204 0.9 4.3 0.00 0.17 0.03 84 1023.3
20260905210049 56 163 0.0 4.3 0.00 0.17 0.03 83 1023.3
20260905205548 56 181 0.9 4.3 0.00 0.17 0.03 83 1023.3
20260905205051 56 244 1.7 5.2 0.00 0.17 0.03 83 1023.3
20260905204548 56 208 0.9 5.2 0.00 0.17 0.03 83 1023.1
20260905204047 56 247 1.7 6.1 0.00 0.17 0.03 83 1022.9
20260905203550 56 127 0.9 6.1 0.00 0.17 0.03 83 1023.1
20260905203047 56 304 2.6 7.0 0.00 0.17 0.03 83 1022.8
20260905202546 56 215 0.9 7.0 0.00 0.17 0.03 83 1022.9
20260905202049 56 199 0.0 7.8 0.00 0.17 0.03 83 1022.7
20260905201546 56 254 1.7 7.8 0.00 0.17 0.03 83 1022.9
20260905201046 57 223 0.0 6.1 0.00 0.17 0.03 83 1022.8
20260905200545 57 240 0.9 6.1 0.00 0.17 0.03 82 1022.6
20260905200047 57 197 0.9 3.5 0.00 0.17 0.03 82 1022.7
20260905195543 57 185 0.0 3.5 0.00 0.17 0.03 82 1022.6
20260905195043 57 229 0.9 3.5 0.00 0.17 0.03 82 1022.6
20260905194542 57 208 0.0 3.5 0.00 0.17 0.03 82 1022.4
20260905194042 57 212 0.9 4.3 0.00 0.17 0.03 82 1022.2
20260905193542 57 221 0.0 4.3 0.00 0.17 0.03 82 1022.2
20260905193042 57 227 0.9 6.1 0.00 0.17 0.03 82 1022.0
20260905192541 57 235 0.9 6.1 0.00 0.17 0.03 81 1022.1
20260905192042 57 188 1.7 4.3 0.00 0.17 0.03 81 1022.1
20260905191540 57 234 0.0 6.1 0.00 0.17 0.03 81 1022.1
20260905191041 57 213 0.9 6.1 0.00 0.17 0.03 80 1022.2
20260905190539 57 250 0.0 3.5 0.00 0.17 0.03 80 1022.2
20260905190039 58 239 0.0 7.0 0.00 0.17 0.03 80 1022.1
20260905185540 58 223 1.7 7.0 0.00 0.19 0.03 79 1022.1
20260905185038 58 258 0.9 7.0 0.00 0.19 0.03 78 1022.1
20260905184544 58 244 3.5 10.4 0.00 0.19 0.03 78 1021.9
20260905184038 59 159 0.9 5.2 0.00 0.19 0.03 76 1021.9
20260905183540 59 226 0.0 1.7 0.00 0.19 0.03 76 1021.7
20260905183038 59 227 0.0 2.6 0.00 0.19 0.03 75 1021.6
20260905182541 59 227 0.0 3.5 0.00 0.19 0.03 76 1021.5
20260905182036 59 303 0.9 3.5 0.00 0.19 0.03 75 1021.5